     2              OBSERVATION DATA    GPS                 RINEX VERSION / TYPE
ASHTORIN IGPP/SIO/UCSD 26 - JUN - 98 09:17                  PGM / RUN BY / DATE
                                                            COMMENT
Original Marker Name: A586 1939                             COMMENT
Campaign Name: Anza Transect 1998                           COMMENT
4-Character Station Name: A586                              COMMENT
6-Character Antenna Code: DMRCHT                            COMMENT
Vertical Measurement Point: BCR                             COMMENT
Vertical Offset to Rinex Ref. Point: 0.0349                 COMMENT
Radial Measurement Point: ECF                               COMMENT
Radial Offset to Rinex Ref. Point: 0.1896                   COMMENT
Antenna Height from Field Measurement: 0.9110 m             COMMENT
Additional Antenna Identification Info.:                    COMMENT
Turborogue and Ashtech Choke Ring                           COMMENT
Original XYZ: -2404262.2372 -4752153.1585 3499338.8427      COMMENT
New XYZ position is based on association with SCEC monument COMMENT
E1D0F3S7+0011. Position of that monument is believed to be  COMMENT
valid to within 1 m horizontally; vertical accuracy         COMMENT
should be no worse than 3-times this value.                 COMMENT
                                                            COMMENT
Revised Rinex header created by UCSD GPS archive for        COMMENT
GSAC on 12-Apr-1999 (1999:102) 04:17:37 GMT                 COMMENT
For assistance contact dagnew@ucsd.edu or hjohnson@ucsd.edu COMMENT
                                                            COMMENT
A586 1939                                                   MARKER NAME
A586                                                        MARKER NUMBER
Anderson/Elliott SCRIPPS INSTITUTION OF OCEANOGRAPHY        OBSERVER / AGENCY
319 ASHTECH Z12-XII3 1F501D0                                REC # / TYPE / VERS
409 DORNE-MARGOL. TYPE T                                    ANT # / TYPE
 -2404258.0000 -4752173.0000  3499325.0000                  APPROX POSITION XYZ
        0.8562        0.0000        0.0000                  ANTENNA: DELTA H/E/N
     1     1     0                                          WAVELENGTH FACT L1/2
     7    L1    L2    C1    P1    P2    D1    D2            # / TYPES OF OBSERV
    30                                                      INTERVAL
  1998     6    26     0     0   30.000000                  TIME OF FIRST OBS
  1998     6    26     0    16    0.000000                  TIME OF LAST OBS
     0                                                      # OF SATELLITES
                                                            END OF HEADER
 98  6 26  0  0 30.0000000  0  9  1 23 21  3  9 17  8 31 29          0.000000000
 -23473026.705 9 -18268849.84549  20690127.167    20690126.8934   20690133.2394
        -0.000          -0.000
 -18137362.897 9 -14098280.96548  21845559.049    21845558.6544   21845564.5834
        -0.000          -0.000
 -23785787.817 9 -18100129.21248  20946078.837    20946078.4724   20946084.5814
        -0.000          -0.000
 -20224555.690 9 -15746020.77248  21505869.113    21505868.9964   21505875.4244
        -0.000          -0.000
  -6993207.409 9  -5435682.99846  23622472.860    23622472.7524   23622479.7004
        -0.000          -0.000
  -1836615.989 9  -1420501.01947  22713933.629    22713933.0914   22713940.3444
        -0.000          -0.000
 -12181905.430 9  -8658245.11446  23003203.188    23003202.8744   23003209.7574
        -0.000          -0.000
 -12089213.667 9  -9177521.40046  23032223.490    23032223.2544   23032230.0164
        -0.000          -0.000
 -13721280.747 9 -10675561.72247  22444947.021    22444947.1464   22444954.1824
        -0.000          -0.000
 98  6 26  0  1  0.0000000  0  9  1 23 21  3  9 17  8 31 29          0.000000044
 -23520588.104 9 -18305910.65249  20681076.511    20681076.2594   20681082.5814
        -0.000          -0.000
 -18094815.918 9 -14065127.49248  21853655.492    21853655.0804   21853661.0354
        -0.000          -0.000
 -23792783.555 9 -18105580.43148  20944747.569    20944747.2134   20944753.2854
        -0.000          -0.000
 -20202584.479 9 -15728900.37748  21510050.124    21510050.0024   21510056.4054
        -0.000          -0.000
  -6984786.508 9  -5429121.26146  23624075.505    23624075.3334   23624082.0264
        -0.000          -0.000
  -1756691.536 9  -1358222.28247  22729142.900    22729142.2824   22729149.5874
        -0.000          -0.000
 -12239890.599 9  -8703428.33646  22992168.754    22992168.4544   22992175.4754
        -0.000          -0.000
 -12134433.478 9  -9212757.59046  23023618.431    23023618.2014   23023624.9944
        -0.000          -0.000
 -13810217.040 9 -10744862.64847  22428022.888    22428023.0834   22428030.0744
        -0.000          -0.000
 98  6 26  0  1 30.0000000  0  9  1 23 21  3  9 17  8 31 29          0.000000074
 -23567685.249 9 -18342609.70149  20672114.266    20672113.9834   20672120.2904
        -0.000          -0.000
 -18052172.180 9 -14031898.62348  21861770.334    21861769.8924   21861775.8744
        -0.000          -0.000
 -23799676.160 9 -18110951.28548  20943435.983    20943435.6214   20943441.6704
        -0.000          -0.000
 -20180071.933 9 -15711358.15248  21514334.158    21514333.9974   21514340.3574
        -0.000          -0.000
  -6975816.701 9  -5422131.80646  23625782.349    23625782.1314   23625788.8904
        -0.000          -0.000
  -1676493.075 9  -1295730.02947  22744404.180    22744403.6274   22744410.8794
        -0.000          -0.000
 -12297538.282 9  -8748348.55946  22981198.786    22981198.5674   22981205.4484
        -0.000          -0.000
 -12179154.211 9  -9247604.89646  23015108.364    23015108.1424   23015114.9154
        -0.000          -0.000
 -13898856.341 9 -10813932.14547  22411155.332    22411155.5004   22411162.4824
        -0.000          -0.000
 98  6 26  0  2  0.0000000  0  9  1 23 21  3  9 17  8 31 29          0.000000099
 -23614332.863 9 -18378958.46649  20663237.517    20663237.2194   20663243.5334
        -0.000          -0.000
 -18009444.221 9 -13998604.12548  21869901.161    21869900.7534   21869906.8154
        -0.000          -0.000
 -23806476.086 9 -18116249.92348  20942141.990    20942141.6074   20942147.6704
        -0.000          -0.000
 -20157033.916 9 -15693406.47748  21518718.187    21518718.0314   21518724.3364
        -0.000          -0.000
  -6966307.942 9  -5414722.37846  23627591.811    23627591.6494   23627598.3774
        -0.000          -0.000
  -1596022.596 9  -1233025.83047  22759717.378    22759716.7954   22759723.9484
        -0.000          -0.000
 -12354852.783 9  -8793009.17146  22970292.256    22970291.8884   22970298.7854
        -0.000          -0.000
 -12223399.832 9  -9282081.97846  23006688.900    23006688.5514   23006695.2884
        -0.000          -0.000
 -13987213.741 9 -10882781.98247  22394341.505    22394341.5904   22394348.6154
        -0.000          -0.000
 98  6 26  0  2 30.0000000  0  9  1 23 21  3  9 17  8 31 29          0.000000112
 -23660517.648 9 -18414946.58949  20654448.825    20654448.5234   20654454.8144
        -0.000          -0.000
 -17966634.655 9 -13965246.03948  21878047.600    21878047.1334   21878053.2504
        -0.000          -0.000
 -23813149.523 9 -18121449.99548  20940872.049    20940871.6764   20940877.7804
        -0.000          -0.000
 -20133461.363 9 -15675038.27448  21523203.936    21523203.7564   21523210.0744
        -0.000          -0.000
  -6956264.408 9  -5406896.26446  23629503.001    23629502.8464   23629509.4814
        -0.000          -0.000
  -1515282.268 9  -1170111.34047  22775081.882    22775081.2604   22775088.3524
        -0.000          -0.000
 -12411805.488 9  -8837387.87246  22959454.430    22959454.0914   22959461.0144
        -0.000          -0.000
 -12267156.514 9  -9316178.07946  22998362.239    22998361.9154   22998368.6004
        -0.000          -0.000
 -14075287.795 9 -10951411.03647  22377581.523    22377581.6034   22377588.6004
        -0.000          -0.000
 98  6 26  0  3  0.0000000  0  9  1 23 21  3  9 17  8 31 29          0.000000116
 -23706241.326 9 -18450575.40249  20645747.895    20645747.6164   20645753.8724
        -0.000          -0.000
 -17923755.648 9 -13931833.84048  21886207.217    21886206.7844   21886212.8634
        -0.000          -0.000
 -23819669.265 9 -18126530.31048  20939631.377    20939631.0054   20939637.0994
        -0.000          -0.000
 -20109362.123 9 -15656259.67048  21527789.857    21527789.7214   21527796.0294
        -0.000          -0.000
  -6945693.458 9  -5398659.16046  23631514.506    23631514.4034   23631521.1234
        -0.000          -0.000
  -1434254.421 9  -1106972.81147  22790500.939    22790500.3954   22790507.5724
        -0.000          -0.000
 -12468382.960 9  -8881474.16046  22948688.162    22948687.8044   22948694.6724
        -0.000          -0.000
 -12310412.868 9  -9349884.30546  22990130.885    22990130.5334   22990137.0924
        -0.000          -0.000
 -14163076.452 9 -11019817.68947  22360875.786    22360875.8684   22360882.9014
        -0.000          -0.000
 98  6 26  0  3 30.0000000  0  9  1 23 21  3  9 17  8 31 29          0.000000113
 -23751465.130 9 -18485814.70149  20637142.075    20637141.7744   20637148.0214
        -0.000          -0.000
 -17880795.214 9 -13898358.19348  21894382.424    21894381.9154   21894388.0184
        -0.000          -0.000
 -23825994.255 9 -18131458.86748  20938427.815    20938427.4184   20938433.4984
        -0.000          -0.000
 -20084700.040 9 -15637042.48548  21532482.936    21532482.8024   21532489.1034
        -0.000          -0.000
  -6934584.748 9  -5390003.02646  23633628.506    23633628.4004   23633635.0564
        -0.000          -0.000
  -1352906.228 9  -1043584.66246  22805981.094    22805980.5574   22805987.7024
        -0.000          -0.000
 -12524565.632 9  -8925252.83046  22937996.690    22937996.3964   22938003.3414
        -0.000          -0.000
 -12353144.321 9  -9383181.52046  22981999.454    22981999.0534   22982005.5774
        -0.000          -0.000
 -14250565.135 9 -11087990.61047  22344227.164    22344227.2534   22344234.2714
        -0.000          -0.000
 98  6 26  0  4  0.0000000  0  9  1 23 21  3  9 17  8 31 29          0.000000103
 -23796176.027 9 -18520654.33949  20628633.882    20628633.5844   20628639.8254
        -0.000          -0.000
 -17837736.518 9 -13864805.97848  21902576.318    21902575.7924   21902581.8894
        -0.000          -0.000
 -23832108.299 9 -18136223.05748  20937264.335    20937263.9744   20937270.0144
        -0.000          -0.000
 -20059442.881 9 -15617361.60148  21537289.214    21537289.0754   21537295.3784
        -0.000          -0.000
  -6922938.741 9  -5380928.23346  23635844.743    23635844.6254   23635851.1744
        -0.000          -0.000
  -1271234.863 9   -979944.69646  22821522.817    22821522.2294   22821529.2404
        -0.000          -0.000
 -12580360.385 9  -8968729.22346  22927379.225    22927378.9564   22927385.9004
        -0.000          -0.000
 -12395329.118 9  -9416052.76646  22973971.958    22973971.6504   22973978.1334
        -0.000          -0.000
 -14337748.175 9 -11155925.37047  22327636.815    22327636.8394   22327643.7774
        -0.000          -0.000
 98  6 26  0  4 30.0000000  0  9  1 23 21  3  9 17  8 31 29          0.000000090
 -23840376.990 9 -18555096.62149  20620222.693    20620222.4074   20620228.6344
        -0.000          -0.000
 -17794596.371 9 -13831190.29748  21910785.592    21910785.0794   21910791.1484
        -0.000          -0.000
 -23838021.308 9 -18140830.58649  20936139.198    20936138.8224   20936144.8324
        -0.000          -0.000
 -20033585.068 9 -15597212.67348  21542209.795    21542209.6784   21542215.9414
        -0.000          -0.000
  -6910757.439 9  -5371436.32246  23638162.873    23638162.6714   23638169.2234
        -0.000          -0.000
  -1189233.677 9   -916047.71846  22837127.052    22837126.4974   22837133.5244
        -0.000          -0.000
 -12635785.956 9  -9011917.93646  22916831.987    22916831.7384   22916838.7294
        -0.000          -0.000
 -12436963.945 9  -9448495.46446  22966049.032    22966048.7454   22966055.2634
        -0.000          -0.000
 -14424626.495 9 -11223622.68147  22311104.406    22311104.4344   22311111.3194
        -0.000          -0.000
 98  6 26  0  5  0.0000000  0  9  1 23 21  3  9 17  8 31 29          0.000000080
 -23884065.438 9 -18589139.54549  20611909.078    20611908.7634   20611914.9474
        -0.000          -0.000
 -17751368.893 9 -13797506.56048  21919011.488    21919010.9754   21919017.0444
        -0.000          -0.000
 -23843755.929 9 -18145299.11749  20935047.978    20935047.5784   20935053.5924
        -0.000          -0.000
 -20007122.990 9 -15576592.90148  21547245.395    21547245.2334   21547251.4884
        -0.000          -0.000
  -6898032.162 9  -5361520.52646  23640584.431    23640584.2544   23640590.8204
        -0.000          -0.000
  -1106903.708 9   -851894.55646  22852793.921    22852793.3404   22852800.4634
        -0.000          -0.000
 -12690847.441 9  -9054822.95746  22906354.095    22906353.8314   22906360.8924
        -0.000          -0.000
 -12478053.062 9  -9480512.93446  22958229.912    22958229.6594   22958236.2174
        -0.000          -0.000
 -14511196.363 9 -11291079.65547  22294630.620    22294630.6794   22294637.4634
        -0.000          -0.000
 98  6 26  0  5 30.0000000  0  9  1 23 21  3  9 17  8 31 29          0.000000067
 -23927247.186 9 -18622787.64049  20603691.828    20603691.5114   20603697.6594
        -0.000          -0.000
 -17708068.589 9 -13763766.08148  21927251.205    21927250.7304   21927256.7804
        -0.000          -0.000
 -23849348.038 9 -18149656.60648  20933983.759    20933983.3654   20933989.4244
        -0.000          -0.000
 -19980082.122 9 -15555522.12748  21552391.064    21552390.9004   21552397.1764
        -0.000          -0.000
  -6884769.020 9  -5351185.62146  23643108.336    23643108.1074   23643114.6794
        -0.000          -0.000
  -1024282.297 9   -787514.30146  22868516.342    22868515.7274   22868522.8834
        -0.000          -0.000
 -12745556.412 9  -9097453.29546  22895943.334    22895943.0694   22895950.0614
        -0.000          -0.000
 -12518605.474 9  -9512112.19846  22950512.959    22950512.7414   22950519.1994
        -0.000          -0.000
 -14597477.549 9 -11358311.67947  22278211.785    22278211.8854   22278218.5684
        -0.000          -0.000
 98  6 26  0  6  0.0000000  0  9  1 23 21  3  9 17  8 31 29          0.000000069
 -23969916.209 9 -18656036.20549  20595572.179    20595571.8624   20595577.9804
        -0.000          -0.000
 -17664694.409 9 -13729968.04348  21935505.078    21935504.6064   21935510.5914
        -0.000          -0.000
 -23854793.161 9 -18153899.55648  20932947.557    20932947.1624   20932953.2304
        -0.000          -0.000
 -19952475.079 9 -15534010.17548  21557644.538    21557644.3834   21557650.6614
        -0.000          -0.000
  -6870950.314 9  -5340417.81046  23645737.843    23645737.6764   23645744.3254
        -0.000          -0.000
   -941364.208 9   -722902.86846  22884294.958    22884294.3834   22884301.7264
        -0.000          -0.000
 -12799885.686 9  -9139787.76446  22885604.658    22885604.4564   22885611.4584
        -0.000          -0.000
 -12558600.868 9  -9543277.42046  22942902.216    22942901.9394   22942908.3164
        -0.000          -0.000
 -14683448.262 9 -11425301.76147  22261852.064    22261852.1414   22261858.7884
        -0.000          -0.000
 98  6 26  0  6 30.0000000  0  9  1 23 21  3  9 17  8 31 29          0.000000080
 -24012094.815 9 -18688902.62849  20587545.820    20587545.5294   20587551.6094
        -0.000          -0.000
 -17621274.736 9 -13696134.54448  21943767.598    21943767.1064   21943773.1024
        -0.000          -0.000
 -23860114.225 9 -18158045.83448  20931934.976    20931934.5834   20931940.6324
        -0.000          -0.000
 -19924347.069 9 -15512092.27648  21562997.178    21562997.0284   21563003.2754
        -0.000          -0.000
  -6856586.986 9  -5329225.60446  23648471.216    23648471.0544   23648477.6344
        -0.000          -0.000
   -858177.255 9   -658081.92746  22900124.972    22900124.4234   22900131.7334
        -0.000          -0.000
 -12853816.405 9  -9181811.67346  22875342.106    22875341.8204   22875348.7454
        -0.000          -0.000
 -12598059.076 9  -9574024.05046  22935393.571    22935393.3084   22935399.6814
        -0.000          -0.000
 -14769134.989 9 -11492070.56747  22245546.289    22245546.3894   22245553.0574
        -0.000          -0.000
 98  6 26  0  7  0.0000000  0  9  1 23 21  3  9 17  8 31 29          0.000000091
 -24053775.100 9 -18721380.74949  20579614.353    20579614.0504   20579620.0894
        -0.000          -0.000
 -17577786.692 9 -13662247.78048  21952043.083    21952042.5874   21952048.6734
        -0.000          -0.000
 -23865299.591 9 -18162086.38148  20930948.214    20930947.8564   20930953.8684
        -0.000          -0.000
 -19895708.275 9 -15489776.35548  21568447.000    21568446.8554   21568453.1034
        -0.000          -0.000
  -6841678.520 9  -5317608.63946  23651308.127    23651307.9604   23651314.6684
        -0.000          -0.000
   -774739.843 9   -593065.82846  22916002.720    22916002.1114   22916009.3984
        -0.000          -0.000
 -12907316.572 9  -9223500.09146  22865161.332    22865161.0584   22865167.9934
        -0.000          -0.000
 -12636975.027 9  -9604348.16346  22927988.055    22927987.7944   22927994.1724
        -0.000          -0.000
 -14854535.021 9 -11558615.97247  22229295.060    22229295.1594   22229301.9144
        -0.000          -0.000
 98  6 26  0  7 30.0000000  0  9  1 23 21  3  9 17  8 31 29          0.000000106
 -24094953.242 9 -18753467.58749  20571778.389    20571778.0544   20571784.1144
        -0.000          -0.000
 -17534222.999 9 -13628302.06848  21960332.991    21960332.5084   21960338.6214
        -0.000          -0.000
 -23870331.620 9 -18166007.44648  20929990.657    20929990.2694   20929996.2874
        -0.000          -0.000
 -19866549.587 9 -15467055.32848  21573995.719    21573995.5744   21574001.8464
        -0.000          -0.000
  -6826226.237 9  -5305567.91246  23654248.616    23654248.4044   23654255.2404
        -0.000          -0.000
   -691033.151 9   -527839.88246  22931931.690    22931931.1144   22931938.3224
        -0.000          -0.000
 -12960370.993 9  -9264841.17846  22855065.355    22855065.0584   22855072.0574
        -0.000          -0.000
 -12675346.365 9  -9634247.88947  22920686.341    22920685.9994   22920692.2924
        -0.000          -0.000
 -14939630.859 9 -11624924.34947  22213101.792    22213101.8704   22213108.6674
        -0.000          -0.000
 98  6 26  0  8  0.0000000  0  9  1 23 21  3  9 17  8 31 29          0.000000116
 -24135641.398 9 -18785172.62249  20564035.665    20564035.3454   20564041.3894
        -0.000          -0.000
 -17490584.599 9 -13594298.13948  21968637.126    21968636.6494   21968642.7684
        -0.000          -0.000
 -23875207.158 9 -18169806.56748  20929062.856    20929062.4724   20929068.4914
        -0.000          -0.000
 -19836850.311 9 -15443913.06148  21579647.276    21579647.1614   21579653.4234
        -0.000          -0.000
  -6810239.606 9  -5293110.79646  23657290.792    23657290.5394   23657297.6344
        -0.000          -0.000
   -607057.645 9   -462404.50346  22947911.745    22947911.1814   22947918.3694
        -0.000          -0.000
 -13012990.552 9  -9305843.38246  22845052.165    22845051.7804   22845058.7934
        -0.000          -0.000
 -12713186.956 9  -9663734.05847  22913485.483    22913485.1744   22913491.4804
        -0.000          -0.000
 -15024419.217 9 -11690993.12447  22196967.077    22196967.1104   22196973.9244
        -0.000          -0.000
 98  6 26  0  8 30.0000000  0  9  1 23 21  3  9 17  8 31 29          0.000000112
 -24175833.744 9 -18816491.31449  20556387.273    20556386.9404   20556393.0224
        -0.000          -0.000
 -17446855.519 9 -13560223.56048  21976958.504    21976958.0184   21976964.1084
        -0.000          -0.000
 -23879928.499 9 -18173485.54348  20928164.426    20928164.0534   20928170.0684
        -0.000          -0.000
 -19806596.643 9 -15420338.80448  21585404.373    21585404.2464   21585410.5504
        -0.000          -0.000
  -6793721.380 9  -5280239.46946  23660434.201    23660434.0224   23660440.9664
        -0.000          -0.000
   -522816.127 9   -396761.81146  22963942.381    22963941.8234   22963948.9344
        -0.000          -0.000
 -13065180.657 9  -9346510.98646  22835120.593    22835120.3054   22835127.2554
        -0.000          -0.000
 -12750509.450 9  -9692816.51447  22906383.285    22906382.8914   22906389.2134
        -0.000          -0.000
 -15108901.393 9 -11756823.33047  22180890.538    22180890.5594   22180897.3764
        -0.000          -0.000
 98  6 26  0  9  0.0000000  0  9  1 23 21  3  9 17  8 31 29          0.000000096
 -24215507.018 9 -18847405.52849  20548837.680    20548837.3364   20548843.4484
        -0.000          -0.000
 -17403019.700 9 -13526065.78848  21985300.180    21985299.7444   21985305.7884
        -0.000          -0.000
 -23884475.416 9 -18177028.59848  20927299.196    20927298.8124   20927304.8264
        -0.000          -0.000
 -19775762.159 9 -15396311.96648  21591272.020    21591271.8644   21591278.2234
        -0.000          -0.000
  -6776672.270 9  -5266954.46746  23663678.624    23663678.4564   23663685.1994
        -0.000          -0.000
   -438270.636 9   -330882.27246  22980030.869    22980030.2964   22980037.4654
        -0.000          -0.000
 -13116953.995 9  -9386853.80946  22825268.583    22825268.2454   22825275.0424
        -0.000          -0.000
 -12787305.151 9  -9721488.49347  22899381.155    22899380.8294   22899387.1824
        -0.000          -0.000
 -15193037.831 9 -11822384.12447  22164879.719    22164879.8344   22164886.6084
        -0.000          -0.000
 98  6 26  0  9 30.0000000  0  9  1 23 21  3  9 17  8 31 29          0.000000075
 -24254655.582 9 -18877910.88749  20541387.904    20541387.5734   20541393.6844
        -0.000          -0.000
 -17359087.185 9 -13491832.68248  21993660.193    21993659.7864   21993665.8974
        -0.000          -0.000
 -23888850.944 9 -18180438.10648  20926466.531    20926466.1494   20926472.1724
        -0.000          -0.000
 -19744336.525 9 -15371824.48448  21597252.064    21597251.9644   21597258.3574
        -0.000          -0.000
  -6759085.582 9  -5253250.56546  23667025.306    23667025.1804   23667031.8344
        -0.000          -0.000
   -353413.394 9   -264759.81646  22996178.611    22996178.0764   22996185.1904
        -0.000          -0.000
 -13168318.693 9  -9426878.23246  22815494.208    22815493.9124   22815500.5494
        -0.000          -0.000
 -12823573.343 9  -9749749.43046  22892479.437    22892479.0974   22892485.5484
        -0.000          -0.000
 -15276822.548 9 -11887670.84847  22148935.960    22148936.0614   22148942.8544
        -0.000          -0.000
 98  6 26  0 10  0.0000000  0  9  1 23 21  3  9 17  8 31 29          0.000000045
 -24293284.163 9 -18908011.06049  20534037.094    20534036.7624   20534042.8794
        -0.000          -0.000
 -17315070.027 9 -13457533.61548  22002036.391    22002035.9974   22002042.1754
        -0.000          -0.000
 -23893066.533 9 -18183722.98148  20925664.311    20925663.9544   20925670.0114
        -0.000          -0.000
 -19712351.699 9 -15346901.26648  21603338.579    21603338.4704   21603344.8904
        -0.000          -0.000
  -6740964.293 9  -5239130.09946  23670473.616    23670473.5034   23670480.2164
        -0.000          -0.000
   -268258.792 9   -198405.65346  23012383.040    23012382.4294   23012389.5914
        -0.000          -0.000
 -13219281.167 9  -9466589.23347  22805796.362    22805796.1564   22805802.6934
        -0.000          -0.000
 -12859307.741 9  -9777594.40746  22885679.345    22885679.0444   22885685.5404
        -0.000          -0.000
 -15360273.502 9 -11952697.50047  22133055.699    22133055.8044   22133062.5914
        -0.000          -0.000
 98  6 26  0 10 30.0000000  0  9  1 23 21  3  9 17  8 31 29          0.000000033
 -24331362.255 9 -18937682.27849  20526791.059    20526790.7294   20526796.8704
        -0.000          -0.000
 -17270943.891 9 -13423149.63348  22010433.278    22010432.8844   22010439.1134
        -0.000          -0.000
 -23897099.148 9 -18186865.27848  20924896.945    20924896.5854   20924902.6284
        -0.000          -0.000
 -19679818.447 9 -15321550.70248  21609529.477    21609529.3944   21609535.8244
        -0.000          -0.000
  -6722276.422 9  -5224568.11846  23674029.721    23674029.5704   23674036.4084
        -0.000          -0.000
   -182766.018 9   -131787.96546  23028651.747    23028651.1364   23028658.4144
        -0.000          -0.000
 -13269803.095 9  -9505956.94647  22796182.448    22796182.1224   22796188.7304
        -0.000          -0.000
 -12894464.732 9  -9804989.47547  22878989.196    22878988.9054   22878995.3894
        -0.000          -0.000
 -15443365.572 9 -12017444.49847  22117243.670    22117243.8214   22117250.6074
        -0.000          -0.000
 98  6 26  0 11  0.0000000  0  9  1 23 21  3  9 17  8 31 29          0.000000035
 -24368927.686 9 -18966954.02349  20519642.540    20519642.2474   20519648.4034
        -0.000          -0.000
 -17226740.034 9 -13388705.07948  22018845.066    22018844.6414   22018850.8464
        -0.000          -0.000
 -23900985.499 9 -18189893.60348  20924157.433    20924157.0574   20924163.0314
        -0.000          -0.000
 -19646775.442 9 -15295802.92448  21615817.441    21615817.3014   21615823.7244
        -0.000          -0.000
  -6703043.931 9  -5209581.78346  23677689.437    23677689.2974   23677696.2824
        -0.000          -0.000
    -96968.574 9    -64932.88446  23044978.323    23044977.7644   23044985.2484
        -0.000          -0.000
 -13319916.510 9  -9545006.33347  22786646.012    22786645.7744   22786652.4444
        -0.000          -0.000
 -12929048.689 9  -9831938.02347  22872408.218    22872407.8814   22872414.3004
        -0.000          -0.000
 -15526123.701 9 -12081931.28547  22101495.323    22101495.5034   22101502.2134
        -0.000          -0.000
 98  6 26  0 11 30.0000000  0  9  1 23 21  3  9 17  8 31 29          0.000000055
 -24406008.698 9 -18995848.30149  20512586.231    20512585.9324   20512592.1194
        -0.000          -0.000
 -17182461.858 9 -13354202.63548  22027270.949    22027270.5284   22027276.7064
        -0.000          -0.000
 -23904746.168 9 -18192823.99648  20923441.804    20923441.4334   20923447.3914
        -0.000          -0.000
 -19613244.583 9 -15269675.01048  21622198.207    21622198.0544   21622204.4554
        -0.000          -0.000
  -6683266.491 9  -5194170.80946  23681452.914    23681452.8014   23681459.7874
        -0.000          -0.000
    -10896.267 9      2136.37346  23061357.390    23061356.9254   23061364.3974
        -0.000          -0.000
 -13369620.887 9  -9583736.99647  22777187.668    22777187.4214   22777194.0294
        -0.000          -0.000
 -12963058.051 9  -9858438.82647  22865936.544    22865936.1824   22865942.5264
        -0.000          -0.000
 -15608570.236 9 -12146175.27447  22085806.347    22085806.4844   22085813.1284
        -0.000          -0.000
 98  6 26  0 12  0.0000000  0  9  1 23 21  3  9 17  8 31 29          0.000000099
 -24442616.937 9 -19024374.18149  20505619.892    20505619.5954   20505625.7574
        -0.000          -0.000
 -17138117.755 9 -13319648.80848  22035709.353    22035708.9264   22035715.1014
        -0.000          -0.000
 -23908380.295 9 -18195655.78648  20922750.234    20922749.8624   20922755.8594
        -0.000          -0.000
 -19579238.028 9 -15243176.42048  21628669.439    21628669.2544   21628675.6794
        -0.000          -0.000
  -6662952.351 9  -5178341.62246  23685318.614    23685318.4954   23685325.4594
        -0.000          -0.000
     75462.657 9     69428.97646  23077791.138    23077790.6174   23077797.9334
        -0.000          -0.000
 -13418920.006 9  -9622151.87347  22767806.542    22767806.1864   22767812.6824
        -0.000          -0.000
 -12996484.559 9  -9884485.45447  22859575.722    22859575.2764   22859581.6724
        -0.000          -0.000
 -15690705.502 9 -12210176.71547  22070176.497    22070176.6454   22070183.2774
        -0.000          -0.000
 98  6 26  0 12 30.0000000  0  9  1 23 21  3  9 17  8 31 29          0.000000106
 -24478839.291 9 -19052599.37549  20498727.014    20498726.7174   20498732.8204
        -0.000          -0.000
 -17093792.639 9 -13285109.77248  22044144.134    22044143.7374   22044149.8494
        -0.000          -0.000
 -23911966.262 9 -18198450.04748  20922067.843    20922067.4644   20922073.4854
        -0.000          -0.000
 -19544823.008 9 -15216359.54748  21635218.373    21635218.2104   21635224.6914
        -0.000          -0.000
  -6642187.181 9  -5162160.98046  23689270.108    23689270.0394   23689276.9284
        -0.000          -0.000
    162015.085 9    136872.35646  23094261.723    23094261.0954   23094268.3664
        -0.000          -0.000
 -13467895.519 9  -9660314.59747  22758486.807    22758486.5474   22758492.8884
        -0.000          -0.000
 -13029426.842 9  -9910154.75947  22853306.950    22853306.4754   22853312.9854
        -0.000          -0.000
 -15772605.325 9 -12273994.68447  22054591.476    22054591.5644   22054598.2494
        -0.000          -0.000
 98  6 26  0 13  0.0000000  0  9  1 23 21  3  9 17  8 31 29          0.000000111
 -24514596.381 9 -19080462.02149  20491922.653    20491922.3374   20491928.4414
        -0.000          -0.000
 -17049401.993 9 -13250519.68648  22052591.488    22052591.0494   22052597.1794
        -0.000          -0.000
 -23915419.501 9 -18201140.88348  20921410.684    20921410.3294   20921416.3334
        -0.000          -0.000
 -19509899.143 9 -15189146.17348  21641864.173    21641863.9994   21641870.5204
        -0.000          -0.000
  -6620895.397 9  -5145569.98046  23693321.950    23693321.8944   23693328.5594
        -0.000          -0.000
    248826.915 9    204517.86646  23110781.619    23110781.0494   23110788.2104
        -0.000          -0.000
 -13516472.258 9  -9698166.57547  22749243.041    22749242.6884   22749249.0114
        -0.000          -0.000
 -13061829.202 9  -9935403.35347  22847140.879    22847140.4644   22847147.0464
        -0.000          -0.000
 -15854199.632 9 -12337574.60247  22039064.515    22039064.6134   22039071.3514
        -0.000          -0.000
 98  6 26  0 13 30.0000000  0  9  1 23 21  3  9 17  8 31 29          0.000000112
 -24549850.911 9 -19107933.06649  20485213.942    20485213.6324   20485219.7164
        -0.000          -0.000
 -17004920.137 9 -13215858.52048  22061056.167    22061055.7094   22061061.8104
        -0.000          -0.000
 -23918687.091 9 -18203687.06048  20920788.915    20920788.5594   20920794.5514
        -0.000          -0.000
 -19474431.188 9 -15161508.83048  21648613.520    21648613.3274   21648619.8494
        -0.000          -0.000
  -6599052.342 9  -5128549.42946  23697478.624    23697478.5474   23697485.0474
        -0.000          -0.000
    335933.116 9    272392.75046  23127357.500    23127356.9644   23127364.1184
        -0.000          -0.000
 -13564607.375 9  -9735674.42747  22740083.126    22740082.7984   22740089.1484
        -0.000          -0.000
 -13093688.891 9  -9960229.07647  22841078.141    22841077.8014   22841084.3914
        -0.000          -0.000
 -15935463.583 9 -12400897.09147  22023600.357    22023600.4694   22023607.2944
        -0.000          -0.000
 98  6 26  0 14  0.0000000  0  9  1 23 21  3  9 17  8 31 29          0.000000102
 -24584588.688 9 -19135001.44449  20478603.578    20478603.2584   20478609.3064
        -0.000          -0.000
 -16960347.343 9 -13181126.49547  22069538.007    22069537.5874   22069543.7544
        -0.000          -0.000
 -23921765.599 9 -18206085.89848  20920203.125    20920202.7454   20920208.7444
        -0.000          -0.000
 -19438402.074 9 -15133434.22548  21655469.674    21655469.5004   21655475.9514
        -0.000          -0.000
  -6576649.755 9  -5111092.88746  23701741.590    23701741.5364   23701748.0794
        -0.000          -0.000
    423324.889 9    340490.15946  23143987.723    23143987.1814   23143994.2274
        -0.000          -0.000
 -13612294.180 9  -9772832.96547  22731008.489    22731008.2014   22731014.6294
        -0.000          -0.000
 -13125019.140 9  -9984642.24747  22835116.254    22835115.8884   22835122.4164
        -0.000          -0.000
 -16016400.222 9 -12463964.53347  22008198.610    22008198.6814   22008205.5654
        -0.000          -0.000
 98  6 26  0 14 30.0000000  0  9  1 23 21  3  9 17  8 31 29          0.000000082
 -24618798.369 9 -19161658.32349  20472093.729    20472093.3954   20472099.3944
        -0.000          -0.000
 -16915656.873 9 -13146302.76747  22078042.302    22078041.8804   22078048.0734
        -0.000          -0.000
 -23924651.714 9 -18208334.82148  20919653.895    20919653.5254   20919659.5654
        -0.000          -0.000
 -19401796.319 9 -15104910.29648  21662435.566    21662435.3784   21662441.7684
        -0.000          -0.000
  -6553664.754 9  -5093182.50946  23706115.462    23706115.3574   23706121.9664
        -0.000          -0.000
    510983.907 9    408795.79546  23160668.888    23160668.3124   23160675.3464
        -0.000          -0.000
 -13659521.800 9  -9809633.68147  22722021.348    22722021.0324   22722027.4834
        -0.000          -0.000
 -13155813.088 9 -10008637.53347  22829256.339    22829256.0154   22829262.5004
        -0.000          -0.000
 -16097006.387 9 -12526774.47147  21992859.694    21992859.8004   21992866.7414
        -0.000          -0.000
 98  6 26  0 15  0.0000000  0  9  1 23 21  3  9 17  8 31 29          0.000000061
 -24652460.231 9 -19187888.32649  20465688.070    20465687.7294   20465693.7414
        -0.000          -0.000
 -16870833.600 9 -13111375.56747  22086571.971    22086571.4944   22086577.6534
        -0.000          -0.000
 -23927328.857 9 -18210420.90548  20919144.420    20919144.0484   20919150.1214
        -0.000          -0.000
 -19364604.514 9 -15075929.69548  21669512.904    21669512.7484   21669519.1544
        -0.000          -0.000
  -6530093.811 9  -5074815.55646  23710600.890    23710600.8234   23710607.3074
        -0.000          -0.000
    598927.081 9    477322.89046  23177404.071    23177403.4384   23177410.4424
        -0.000          -0.000
 -13706280.303 9  -9846068.85747  22713123.485    22713123.2024   22713129.6474
        -0.000          -0.000
 -13186042.167 9 -10032192.66147  22823504.058    22823503.6874   22823510.1034
        -0.000          -0.000
 -16177270.626 9 -12589317.96647  21977585.818    21977585.9244   21977592.9074
        -0.000          -0.000
 98  6 26  0 15 30.0000000  0  9  1 23 21  3  9 17  8 31 29          0.000000036
 -24685606.551 9 -19213716.60949  20459380.471    20459380.1464   20459386.1554
        -0.000          -0.000
 -16825916.467 9 -13076375.22747  22095119.494    22095118.9974   22095125.1684
        -0.000          -0.000
 -23929835.876 9 -18212374.43548  20918667.322    20918666.9584   20918673.0254
        -0.000          -0.000
 -19326870.804 9 -15046526.84148  21676693.436    21676693.2784   21676699.7004
        -0.000          -0.000
  -6505968.086 9  -5056016.29446  23715191.847    23715191.7544   23715198.2504
        -0.000          -0.000
    687132.435 9    546054.25046  23194188.869    23194188.2884   23194195.4504
        -0.000          -0.000
 -13752595.341 9  -9882158.47147  22704310.056    22704309.6944   22704316.1484
        -0.000          -0.000
 -13215714.457 9 -10055313.92047  22817857.568    22817857.2164   22817863.5604
        -0.000          -0.000
 -16257208.514 9 -12651607.17647  21962374.203    21962374.2654   21962381.1844
        -0.000          -0.000
